Wind_Speed
4 4 4 4 4 4 4 5 5 5 6 6 6 7 7 7 6 6 6 6 6 6 6 7 7 7 7 6 6 6 6 6 6 6 6 5 4 4 5 5 5 5 5
4 4 4 4 4 5 5 6 6 6 7 7 7 7 8 8 7 7 7 6 6 6 7 8 7 7 7 7 7 7 7 7 7 6 6 6 5 5 5 5 6 6 6
5 5 5 5 5 6 6 7 7 8 8 8 8 8 8 8 8 7 7 7 7 7 8 8 8 8 7 7 7 8 8 7 7 7 6 6 7 7 7 6 7 7 7
5 5 5 5 6 6 7 7 7 8 8 8 8 8 8 8 8 8 8 8 8 8 8 8 8 8 8 8 8 8 8 8 8 8 7 7 8 8 8 7 8 8 8
5 6 6 6 6 6 7 8 7 7 8 8 8 9 9 9 9 9 9 9 9 9 9 9 9 9 8 8 8 8 8 9 9 8 8 8 8 8 8 8 8 9 9
5 6 6 7 7 7 7 7 7 7 8 8 9 9 9 9 9 9 9 9 10 10 10 9 9 9 9 9 9 9 9 9 10 9 9 9 9 9 9 9 9 10 10
6 6 6 6 6 7 7 7 7 7 7 8 9 9 9 9 9 10 9 9 9 9 9 9 9 9 9 10 10 10 10 10 10 10 9 10 10 10 10 10 11 11 11
6 6 6 6 7 7 7 7 7 7 7 8 9 8 9 9 10 10 9 9 9 9 10 10 10 10 10 10 10 10 10 10 10 11 11 11 11 11 11 12 12 13 13
6 6 6 7 7 7 7 7 8 8 8 8 8 9 9 9 9 10 10 10 10 10 10 11 10 10 10 11 11 11 11 11 11 11 12 12 12 12 12 12 13 13 13
6 6 7 7 7 7 7 8 8 8 7 8 8 9 8 9 9 9 9 9 9 10 10 10 10 10 10 11 11 11 12 12 12 12 12 12 12 12 13 13 13 13 13
5 6 7 7 7 7 7 7 7 7 7 8 8 8 8 8 9 9 9 10 10 10 10 10 10 10 10 10 11 11 11 11 11 12 12 12 13 13 13 13 13 13 13
6 6 7 7 8 7 7 7 7 7 8 8 8 8 8 8 8 9 9 10 10 10 10 10 10 10 10 10 11 11 11 11 11 12 12 13 13 13 13 13 13 13 13
6 6 7 7 7 7 7 7 7 8 8 8 8 8 8 8 9 9 9 9 10 11 11 10 11 11 10 11 11 11 11 11 11 12 12 12 12 13 13 13 13 13 13
6 7 7 6 7 7 7 8 8 8 8 8 8 8 9 9 9 9 10 10 10 10 10 11 11 11 11 11 11 11 11 11 11 11 11 11 12 12 12 12 13 13 13
7 7 7 7 7 7 8 8 8 8 8 8 8 8 8 8 9 9 9 9 10 11 11 10 11 12 12 11 11 10 10 10 10 11 11 11 11 12 12 12 12 12 13
7 7 7 7 8 8 8 8 8 8 9 9 9 8 8 8 8 8 9 9 10 11 11 11 11 11 11 11 11 11 10 10 10 10 10 11 11 11 11 11 11 12 12
7 7 7 7 8 8 8 8 9 9 9 9 9 9 9 9 9 9 10 10 10 11 11 11 12 11 11 11 12 11 11 10 11 11 10 10 11 11 11 11 12 12 12
7 7 7 7 8 8 8 8 8 8 9 9 9 10 10 10 10 10 10 11 11 12 12 12 12 12 12 12 12 11 11 11 11 10 10 10 10 10 10 11 12 12 12
7 7 7 7 8 9 9 9 9 9 9 9 10 10 10 10 10 10 10 11 11 11 12 12 12 12 11 11 11 12 12 12 11 11 11 11 10 10 10 11 12 12 11
7 8 8 8 8 8 9 9 9 10 9 9 10 10 10 10 10 10 11 11 11 12 12 11 11 11 11 10 10 11 12 12 11 10 11 11 11 10 10 11 12 12 11
8 8 9 9 9 10 10 10 10 10 10 10 11 11 11 11 11 11 11 11 11 11 11 11 12 11 11 10 10 11 11 11 11 11 10 11 11 11 12 12 11 12 12
9 9 9 10 10 11 11 11 11 11 11 11 12 12 12 12 12 12 12 12 12 11 11 12 12 12 11 11 11 11 11 11 11 11 11 12 12 12 12 13 12 12 11
10 10 10 11 11 12 12 12 12 12 12 12 13 13 12 12 12 12 12 12 12 13 12 12 12 12 12 11 11 11 11 11 11 12 12 12 12 12 13 13 14 13 13
10 10 11 12 12 12 12 12 12 12 12 13 13 13 13 12 13 14 14 13 13 14 14 13 12 13 13 13 13 12 12 12 12 12 12 12 12 12 13 13 14 14 14
11 11 12 12 13 13 13 13 13 13 13 13 14 14 14 15 15 15 15 15 15 15 14 14 13 13 13 13 13 12 12 12 13 13 12 13 13 13 14 13 13 14 14
11 12 13 13 14 14 14 14 14 14 14 14 15 15 15 16 16 16 16 16 16 16 15 14 14 14 14 13 13 13 13 13 13 13 13 13 13 13 14 13 13 13 14
Wind_Direction
272 273 269 264 269 278 289 290 291 291 288 284 281 278 277 276 275 275 273 269 266 261 257 259 261 262 260 263 267 269 269 268 269 272 271 265 259 247 237 235 239 239 240
267 270 272 269 273 274 282 286 281 281 280 279 282 279 273 271 271 272 272 268 265 262 260 262 263 262 259 262 265 267 269 268 265 265 263 264 264 260 246 241 243 246 250
265 267 279 282 279 279 280 279 274 274 276 275 277 281 275 272 271 271 273 269 264 260 261 262 260 261 262 265 267 267 268 265 263 263 262 263 260 258 252 246 248 251 255
268 269 276 280 282 283 285 282 277 278 274 273 274 276 274 272 273 275 276 274 270 265 265 265 263 265 267 268 269 268 268 265 264 264 265 266 263 259 256 252 255 256 257
270 267 272 274 278 282 283 282 280 277 275 274 272 273 272 271 273 276 277 278 275 270 269 269 269 269 270 270 268 266 265 266 268 267 266 269 264 259 257 256 260 259 258
272 269 272 275 277 280 283 278 280 282 275 274 274 273 269 271 270 273 275 277 277 274 272 272 271 270 270 267 265 266 267 267 264 264 266 272 268 261 259 258 260 265 260
277 275 276 274 276 281 282 281 282 282 277 274 274 272 269 271 271 273 275 276 279 278 274 272 270 269 270 269 268 267 266 265 263 263 265 273 271 266 265 265 265 267 264
273 276 278 280 282 283 284 283 283 281 281 280 276 272 271 276 277 273 273 275 277 278 277 275 274 274 273 273 271 268 266 267 268 266 266 270 269 268 268 270 269 270 270
275 277 278 279 282 282 283 282 285 284 284 283 280 274 276 275 275 275 275 277 279 281 279 276 276 277 275 274 275 272 270 269 270 271 269 268 267 268 270 270 269 271 272
276 276 273 276 280 281 284 283 285 286 285 283 279 276 276 276 276 277 279 280 282 284 284 280 279 278 277 277 278 275 273 272 270 269 268 269 268 268 269 270 270 271 271
277 280 278 276 277 280 283 287 287 285 288 287 282 279 276 279 278 278 282 282 282 282 284 283 281 278 277 279 278 276 275 274 272 269 267 269 270 269 270 270 270 271 270
274 277 277 276 275 278 279 285 290 290 289 288 288 283 279 280 278 277 282 283 281 280 280 279 278 278 278 278 279 278 276 277 276 273 269 270 271 271 272 271 269 269 268
278 280 282 281 282 281 281 287 290 292 290 290 293 290 285 284 279 277 280 284 284 281 277 276 276 276 278 279 279 278 277 277 276 274 272 272 271 273 273 273 269 267 265
280 282 282 286 287 283 281 287 292 292 290 293 295 293 289 286 285 285 283 283 285 285 283 280 277 274 277 278 276 277 277 277 279 275 273 273 273 273 274 274 270 267 264
281 281 281 282 281 279 279 286 289 289 292 294 292 291 291 291 288 287 286 285 284 286 285 283 279 276 274 275 273 274 273 278 279 276 274 274 273 272 272 271 269 268 265
281 283 286 287 285 284 286 288 289 288 291 292 292 290 288 291 292 288 288 290 292 289 286 285 284 280 275 275 276 277 276 275 276 276 272 272 271 270 269 269 270 270 268
284 287 288 289 289 290 289 291 295 292 288 288 289 287 287 288 289 287 288 290 291 290 289 287 286 283 275 275 275 274 273 274 274 275 272 270 269 270 268 268 274 272 266
290 291 289 288 288 291 292 292 295 298 296 293 290 288 288 288 291 291 293 292 291 288 287 287 286 281 278 275 270 268 270 271 271 273 274 271 272 271 271 270 271 268 268
287 291 291 288 288 290 291 294 294 297 296 294 294 293 293 292 293 292 293 295 293 287 284 286 286 283 279 276 270 267 268 269 272 276 278 279 277 276 274 271 270 269 269
287 290 290 289 286 287 291 293 293 296 298 295 296 297 295 291 289 289 291 292 292 286 282 284 285 282 276 272 269 269 269 268 268 268 271 274 275 276 274 273 271 270 267
288 291 291 290 291 290 291 291 292 294 296 297 298 298 296 293 290 287 288 292 291 287 284 282 280 279 274 271 270 270 270 269 267 266 267 269 271 272 273 276 275 272 269
290 293 295 293 291 290 289 289 290 290 291 294 298 297 294 290 291 292 290 291 289 288 286 283 282 279 276 272 272 271 270 270 269 267 265 267 268 269 272 274 274 274 271
290 293 293 292 291 288 288 288 288 289 288 289 292 293 291 288 287 289 290 291 290 289 287 284 283 281 279 274 273 270 269 269 268 267 267 269 270 271 272 273 274 272 271
288 292 293 292 291 291 288 287 288 290 291 290 290 289 289 288 288 287 287 286 286 286 284 281 282 281 280 274 271 269 269 271 273 270 270 272 271 271 273 274 274 271 270
288 291 293 293 292 292 290 288 288 288 289 289 288 289 289 289 288 287 285 285 284 280 279 278 276 277 278 274 269 268 268 272 274 271 271 273 274 272 273 274 272 270 270
288 289 292 292 293 292 291 289 289 289 288 287 288 288 288 289 288 286 285 283 284 279 276 276 276 275 275 274 270 267 268 271 274 274 271 273 274 275 275 274 272 271 270
Height
5881 5881 5880 5880 5880 5880 5880 5880 5880 5880 5879 5879 5879 5878 5878 5878 5878 5877 5877 5877 5876 5876 5876 5876 5876 5875 5875 5875 5875 5874 5874 5874 5874 5873 5873 5872 5871 5870 5871 5872 5872 5872 5872
5880 5880 5880 5879 5879 5879 5879 5879 5879 5878 5878 5878 5878 5877 5877 5877 5876 5876 5876 5876 5875 5875 5875 5875 5874 5874 5874 5874 5873 5873 5873 5873 5872 5872 5872 5871 5871 5870 5870 5871 5871 5871 5871
5879 5879 5879 5879 5878 5878 5878 5878 5878 5877 5877 5877 5876 5876 5876 5875 5875 5875 5875 5874 5874 5874 5873 5873 5873 5873 5873 5872 5872 5872 5872 5872 5871 5871 5871 5870 5870 5870 5870 5870 5870 5870 5869
5878 5878 5878 5878 5877 5877 5877 5877 5876 5876 5875 5875 5875 5875 5874 5874 5874 5874 5873 5873 5872 5872 5872 5872 5872 5871 5871 5871 5871 5870 5870 5870 5870 5870 5870 5869 5869 5869 5869 5869 5869 5868 5868
5877 5877 5877 5877 5876 5876 5876 5875 5875 5874 5874 5874 5874 5873 5873 5873 5872 5872 5872 5871 5871 5871 5870 5870 5870 5870 5869 5869 5869 5869 5868 5868 5868 5868 5868 5868 5868 5868 5868 5867 5867 5867 5867
5876 5875 5875 5875 5875 5875 5874 5873 5873 5873 5873 5872 5872 5872 5871 5871 5871 5870 5870 5870 5869 5869 5869 5868 5868 5868 5868 5867 5867 5867 5867 5867 5866 5866 5866 5866 5866 5866 5866 5866 5866 5865 5865
5874 5874 5874 5874 5873 5873 5873 5872 5872 5871 5871 5871 5870 5870 5870 5869 5869 5869 5869 5868 5868 5867 5867 5867 5866 5866 5866 5865 5865 5865 5865 5865 5864 5864 5864 5864 5864 5864 5864 5864 5864 5863 5863
5873 5873 5872 5872 5872 5872 5871 5871 5870 5870 5869 5869 5869 5868 5868 5868 5867 5867 5867 5866 5866 5866 5865 5865 5864 5864 5864 5863 5863 5863 5863 5863 5862 5862 5862 5862 5862 5862 5862 5862 5861 5861 5861
5871 5871 5871 5871 5870 5870 5870 5869 5869 5868 5868 5867 5867 5866 5866 5866 5866 5865 5865 5865 5864 5864 5863 5863 5863 5862 5862 5861 5861 5861 5860 5860 5860 5860 5860 5860 5860 5859 5859 5859 5859 5859 5858
5869 5869 5869 5869 5869 5868 5868 5867 5867 5866 5866 5866 5865 5865 5864 5864 5864 5863 5863 5863 5862 5862 5861 5861 5861 5860 5860 5859 5859 5858 5858 5858 5858 5858 5857 5857 5857 5857 5857 5856 5856 5856 5856
5868 5868 5868 5867 5867 5867 5866 5866 5865 5865 5864 5864 5863 5863 5862 5862 5862 5861 5861 5860 5860 5860 5859 5859 5858 5858 5857 5857 5856 5856 5856 5856 5855 5855 5855 5854 5854 5854 5854 5854 5853 5853 5853
5866 5866 5866 5866 5865 5865 5864 5864 5863 5863 5862 5862 5861 5861 5860 5860 5860 5859 5859 5858 5858 5857 5857 5856 5856 5856 5855 5855 5854 5854 5853 5853 5853 5852 5852 5852 5851 5851 5851 5851 5851 5850 5850
5865 5865 5864 5864 5863 5863 5863 5862 5862 5861 5861 5860 5859 5859 5858 5858 5857 5857 5857 5856 5856 5855 5854 5854 5853 5853 5853 5852 5852 5851 5851 5850 5850 5850 5849 5849 5849 5848 5848 5848 5848 5848 5847
5863 5863 5863 5862 5862 5861 5861 5860 5860 5859 5859 5858 5857 5857 5856 5856 5855 5855 5854 5854 5853 5852 5852 5851 5851 5851 5850 5850 5849 5849 5848 5847 5847 5846 5846 5846 5846 5845 5845 5845 5845 5845 5844
5861 5861 5861 5861 5860 5860 5859 5858 5858 5857 5857 5856 5855 5855 5854 5854 5853 5852 5852 5851 5851 5850 5849 5849 5848 5848 5848 5847 5847 5846 5846 5845 5844 5843 5843 5843 5843 5842 5842 5842 5842 5842 5841
5860 5859 5859 5858 5858 5858 5857 5856 5856 5855 5854 5854 5853 5853 5852 5851 5851 5850 5850 5849 5848 5847 5847 5846 5845 5845 5845 5844 5844 5844 5843 5842 5842 5841 5840 5840 5840 5839 5839 5839 5838 5838 5838
5858 5857 5857 5856 5856 5856 5855 5854 5854 5853 5852 5851 5851 5850 5850 5849 5848 5848 5847 5846 5845 5845 5844 5843 5843 5842 5842 5841 5841 5841 5840 5839 5839 5838 5838 5837 5837 5837 5836 5836 5835 5835 5835
5855 5855 5855 5854 5854 5853 5853 5852 5851 5850 5850 5849 5848 5848 5847 5847 5846 5845 5844 5843 5843 5842 5841 5840 5840 5839 5838 5838 5838 5838 5837 5837 5836 5836 5835 5834 5834 5834 5833 5833 5832 5832 5832
5853 5853 5853 5852 5852 5851 5851 5850 5849 5848 5848 5847 5846 5845 5845 5844 5843 5842 5841 5841 5840 5839 5838 5837 5836 5836 5835 5835 5834 5834 5834 5834 5833 5832 5832 5832 5831 5831 5830 5830 5830 5829 5829
5851 5851 5850 5850 5849 5849 5848 5847 5847 5846 5845 5844 5843 5843 5842 5841 5840 5840 5839 5838 5837 5836 5835 5834 5833 5833 5832 5831 5831 5831 5831 5830 5830 5830 5829 5829 5828 5828 5827 5827 5827 5826 5826
5849 5848 5848 5847 5847 5846 5845 5845 5844 5844 5843 5842 5841 5840 5839 5838 5837 5837 5836 5835 5834 5833 5832 5831 5830 5829 5829 5828 5828 5827 5827 5827 5827 5826 5826 5826 5825 5825 5824 5824 5824 5823 5823
5847 5846 5845 5845 5844 5843 5843 5842 5841 5841 5840 5839 5838 5837 5836 5835 5834 5833 5833 5832 5830 5829 5828 5828 5827 5826 5825 5824 5824 5824 5824 5824 5823 5823 5823 5822 5822 5822 5821 5821 5820 5820 5820
5844 5843 5842 5842 5841 5840 5839 5839 5838 5837 5837 5836 5835 5834 5833 5832 5831 5830 5829 5828 5827 5826 5824 5823 5823 5822 5822 5821 5821 5821 5820 5820 5820 5819 5819 5819 5819 5818 5818 5818 5817 5816 5816
5841 5840 5839 5839 5838 5837 5836 5835 5834 5834 5833 5832 5831 5830 5829 5828 5827 5826 5825 5824 5823 5821 5820 5819 5819 5818 5817 5817 5817 5817 5817 5816 5816 5816 5816 5815 5815 5815 5814 5814 5813 5813 5812
5837 5837 5836 5835 5834 5833 5832 5832 5831 5830 5829 5828 5827 5826 5825 5824 5823 5822 5820 5819 5818 5817 5816 5815 5815 5814 5813 5813 5813 5812 5812 5812 5812 5812 5812 5812 5811 5811 5810 5810 5809 5809 5808
5834 5834 5833 5832 5831 5829 5828 5828 5827 5826 5825 5824 5823 5822 5821 5819 5818 5817 5816 5815 5813 5812 5811 5811 5810 5810 5809 5809 5809 5808 5808 5808 5808 5808 5808 5807 5807 5806 5806 5805 5805 5805 5804